Weather History for LTBU - February, 2013

Change the Weather History Date:

Thursday, February 21, 2013

  Actual Average Record
Temperature  
Mean Temperature 37 °F -  
Max Temperature 42 °F - - ()
Min Temperature 32 °F - - ()
Degree Days  
Heating Degree Days 28    
Moisture  
Dew Point 37 °F    
Average Humidity 92    
Maximum Humidity 100    
Minimum Humidity 81    
Precipitation  
Precipitation 0.00 in - - ()
Sea Level Pressure  
Sea Level Pressure 30.05 in    
Wind  
Wind Speed 6 mph ()    
Max Wind Speed 9 mph    
Max Gust Speed -    
Visibility 3.6 miles    
Events Rain    
T = Trace of Precipitation, MM = Missing Value Source: Averaged Metar Reports

Daily Weather History Graph

Daily Weather History Graph

Search for Another Location

Airport or City:

Trip Planner

Search our weather history database for the weather conditions in past years. The results will help you decide how hot, cold, wet, or windy it might be!

Date:

Astronomy

Feb. 21, 2013 Rise Set
Actual Time 6:54 AM EET 5:49 PM EET
Civil Twilight 6:26 AM EET 6:17 PM EET
Nautical Twilight 5:54 AM EET 6:49 PM EET
Astronomical Twilight 5:22 AM EET 7:21 PM EET
Moon 1:45 PM EET (2/21) 3:46 AM EET (2/21)
Length of Visible Light 11h 51m
Length of Day
10h 55m
Waxing Gibbous, 81% of the Moon is Illuminated
Feb 21
Waxing Gibbous
Feb 25
Full
Mar 4
Last Quarter
Mar 11
New
Mar 19
First Quarter

Hourly Weather History & Observations

Time (EET) Temp. Windchill Dew Point Humidity Pressure Visibility Wind Dir Wind Speed Gust Speed Precip Events Conditions
12:20 AM 33.8 °F 30.8 °F 32.0 °F 93% 30.09 in 6.2 mi ENE 3.5 mph - N/A   Partly Cloudy
12:50 AM 33.8 °F 28.6 °F 33.8 °F 100% 30.09 in 6.2 mi ENE 5.8 mph - N/A   Partly Cloudy
1:20 AM 33.8 °F 28.6 °F 32.0 °F 93% 30.09 in - ENE 5.8 mph - N/A   Clear
1:50 AM 33.8 °F 27.7 °F 32.0 °F 93% 30.09 in - East 6.9 mph - N/A   Clear
2:20 AM 33.8 °F 28.6 °F 32.0 °F 93% 30.09 in - ENE 5.8 mph - N/A   Clear
2:50 AM 32.0 °F 27.5 °F 32.0 °F 100% 30.09 in - ENE 4.6 mph - N/A   Clear
3:20 AM 33.8 °F 27.7 °F 33.8 °F 100% 30.09 in - East 6.9 mph - N/A   Clear
3:50 AM 33.8 °F 28.6 °F 33.8 °F 100% 30.09 in - East 5.8 mph - N/A   Clear
4:20 AM 35.6 °F 29.9 °F 33.8 °F 93% 30.09 in - East 6.9 mph - N/A   Clear
4:50 AM 33.8 °F 28.6 °F 33.8 °F 100% 30.09 in - East 5.8 mph - N/A   Clear
5:20 AM 35.6 °F 29.9 °F 33.8 °F 93% 30.09 in 5.0 mi ENE 6.9 mph - N/A   Unknown
5:50 AM 33.8 °F 27.7 °F 33.8 °F 100% 30.09 in 4.3 mi ENE 6.9 mph - N/A   Unknown
6:20 AM 33.8 °F 27.7 °F 33.8 °F 100% 30.09 in 3.7 mi NE 6.9 mph - N/A   Unknown
6:50 AM 35.6 °F 29.9 °F 33.8 °F 93% 30.09 in 1.4 mi ENE 6.9 mph - N/A   Mist
7:20 AM 35.6 °F 30.7 °F 33.8 °F 93% 30.09 in 1.4 mi ENE 5.8 mph - N/A   Mist
7:50 AM 35.6 °F 29.9 °F 35.6 °F 100% 30.09 in 1.4 mi ENE 6.9 mph - N/A   Mist
8:20 AM 37.4 °F 32.8 °F 37.4 °F 100% 30.09 in 1.2 mi ENE 5.8 mph - N/A   Mostly Cloudy
8:50 AM 39.2 °F 34.2 °F 37.4 °F 93% 30.09 in 1.6 mi ENE 6.9 mph - N/A   Mostly Cloudy
9:20 AM 39.2 °F 35.0 °F 39.2 °F 100% 30.09 in 1.6 mi East 5.8 mph - N/A   Mostly Cloudy
9:50 AM 39.2 °F 34.2 °F 39.2 °F 100% 30.09 in 1.9 mi East 6.9 mph - N/A   Mostly Cloudy
10:20 AM 41.0 °F 35.8 °F 39.2 °F 93% 30.09 in 1.6 mi East 8.1 mph - N/A   Mostly Cloudy
10:50 AM 42.8 °F 38.6 °F 39.2 °F 87% 30.09 in 1.9 mi ESE 6.9 mph - N/A   Mostly Cloudy
11:20 AM 42.8 °F 37.5 °F 41.0 °F 93% 30.09 in 2.2 mi ESE 9.2 mph - N/A   Mostly Cloudy
11:50 AM 42.8 °F 38.0 °F 41.0 °F 93% 30.09 in 2.5 mi ESE 8.1 mph - N/A   Mostly Cloudy
12:20 PM 42.8 °F 38.0 °F 39.2 °F 87% 30.09 in 2.8 mi ESE 8.1 mph - N/A   Mostly Cloudy
12:50 PM 42.8 °F 38.0 °F 41.0 °F 93% 30.06 in 3.1 mi SE 8.1 mph - N/A   Mostly Cloudy
1:20 PM 42.8 °F 37.5 °F 39.2 °F 87% 30.06 in 3.1 mi ESE 9.2 mph - N/A   Mostly Cloudy
1:50 PM 42.8 °F 38.0 °F 37.4 °F 81% 30.06 in 3.1 mi ESE 8.1 mph - N/A   Mostly Cloudy
2:20 PM 42.8 °F 38.6 °F 39.2 °F 87% 30.04 in 3.1 mi ESE 6.9 mph - N/A   Mostly Cloudy
2:50 PM 42.8 °F 38.0 °F 39.2 °F 87% 30.04 in 3.1 mi East 8.1 mph - N/A   Mostly Cloudy
3:20 PM 42.8 °F 38.0 °F 39.2 °F 87% 30.04 in 3.7 mi ESE 8.1 mph - N/A   Mostly Cloudy
3:50 PM 42.8 °F 38.0 °F 39.2 °F 87% 30.01 in 3.7 mi East 8.1 mph - N/A   Mostly Cloudy
4:20 PM 42.8 °F 38.6 °F 39.2 °F 87% 30.01 in 3.7 mi ESE 6.9 mph - N/A   Mostly Cloudy
4:50 PM 42.8 °F 39.3 °F 39.2 °F 87% 30.01 in 3.1 mi ESE 5.8 mph - N/A   Mostly Cloudy
5:20 PM 41.0 °F 38.0 °F 39.2 °F 93% 30.01 in 3.1 mi East 4.6 mph - N/A   Mostly Cloudy
5:50 PM 41.0 °F 38.0 °F 37.4 °F 87% 30.01 in 3.1 mi East 4.6 mph - N/A   Mostly Cloudy
6:20 PM 41.0 °F 37.1 °F 39.2 °F 93% 30.01 in 3.1 mi ENE 5.8 mph - N/A   Mostly Cloudy
7:20 PM 41.0 °F 36.4 °F 39.2 °F 93% 30.01 in 3.7 mi ENE 6.9 mph - N/A   Mostly Cloudy
8:20 PM 41.0 °F 35.8 °F 37.4 °F 87% 30.01 in 5.0 mi ENE 8.1 mph - N/A   Mostly Cloudy
8:50 PM 41.0 °F 36.4 °F 37.4 °F 87% 30.01 in 6.2 mi NE 6.9 mph - N/A   Mostly Cloudy
9:20 PM 41.0 °F 35.8 °F 37.4 °F 87% 29.98 in 6.2 mi NNE 8.1 mph - N/A   Mostly Cloudy
9:50 PM 41.0 °F 35.8 °F 37.4 °F 87% 29.98 in 6.2 mi NE 8.1 mph - N/A   Mostly Cloudy
10:20 PM 41.0 °F 36.4 °F 37.4 °F 87% 29.98 in 6.2 mi NE 6.9 mph - N/A   Mostly Cloudy
10:50 PM 41.0 °F 37.1 °F 37.4 °F 87% 29.98 in 6.2 mi NE 5.8 mph - N/A   Mostly Cloudy
11:20 PM 41.0 °F 37.1 °F 37.4 °F 87% 29.98 in 6.2 mi NNE 5.8 mph - N/A   Mostly Cloudy
11:50 PM 41.0 °F 37.1 °F 37.4 °F 87% 29.98 in 6.2 mi NNE 5.8 mph - N/A Rain Light Rain Showers